TimeCST,TemperatureF,Dew PointF,Humidity,Sea Level PressureIn,VisibilityMPH,Wind Direction,Wind SpeedMPH,Gust SpeedMPH,PrecipitationIn,Events,Conditions,WindDirDegrees,DateUTC
12:53 AM,59.0,57.9,96,30.27,4.0,SSW,4.6,-,N/A,,Clear,200,2013-01-24 06:53:00
1:53 AM,60.1,57.9,93,30.26,4.0,South,6.9,-,N/A,,Clear,190,2013-01-24 07:53:00
2:53 AM,59.0,57.9,96,30.26,3.0,SSW,5.8,-,N/A,,Partly Cloudy,210,2013-01-24 08:53:00
2:59 AM,59.0,57.2,94,30.24,1.2,SSW,4.6,-,N/A,,Mostly Cloudy,200,2013-01-24 08:59:00
3:26 AM,59.0,57.2,94,30.24,1.2,SSW,4.6,-,N/A,,Scattered Clouds,200,2013-01-24 09:26:00
3:47 AM,57.2,57.2,100,30.24,0.8,SSW,3.5,-,0.01,,Mist,210,2013-01-24 09:47:00
3:53 AM,57.9,57.0,97,30.25,0.8,SSW,3.5,-,0.01,,Mist,210,2013-01-24 09:53:00
4:01 AM,57.2,57.2,100,30.24,0.8,SSW,3.5,-,N/A,,Mist,200,2013-01-24 10:01:00
4:06 AM,57.2,57.2,100,30.24,0.5,SSW,4.6,-,N/A,Fog,Fog,200,2013-01-24 10:06:00
4:21 AM,59.0,57.2,94,30.24,0.2,SSW,4.6,-,N/A,Fog,Fog,210,2013-01-24 10:21:00
4:53 AM,59.0,57.9,96,30.25,0.2,South,3.5,-,N/A,Fog,Fog,190,2013-01-24 10:53:00
5:00 AM,59.0,57.2,94,30.23,0.2,South,4.6,-,N/A,Fog,Fog,190,2013-01-24 11:00:00
5:24 AM,59.0,57.2,94,30.23,0.2,South,4.6,-,N/A,Fog,Fog,180,2013-01-24 11:24:00
5:53 AM,59.0,57.9,96,30.25,0.2,South,4.6,-,N/A,Fog,Fog,190,2013-01-24 11:53:00
6:53 AM,59.0,57.9,96,30.27,0.2,SSW,4.6,-,N/A,Fog,Fog,200,2013-01-24 12:53:00
7:15 AM,59.0,57.2,94,30.25,0.2,Calm,Calm,-,N/A,Fog,Fog,0,2013-01-24 13:15:00
7:30 AM,59.0,57.2,94,30.26,0.1,Calm,Calm,-,N/A,Fog,Fog,0,2013-01-24 13:30:00
7:48 AM,60.8,59.0,94,30.26,0.2,SW,5.8,-,N/A,Fog,Fog,230,2013-01-24 13:48:00
7:49 AM,60.1,59.0,96,30.28,0.2,SW,5.8,-,N/A,Fog,Fog,220,2013-01-24 13:49:00
8:17 AM,60.8,59.0,94,30.27,0.5,Calm,Calm,-,N/A,Fog,Fog,0,2013-01-24 14:17:00
8:32 AM,60.8,59.0,94,30.28,0.2,WSW,3.5,-,N/A,Fog,Fog,250,2013-01-24 14:32:00
8:53 AM,61.0,60.1,97,30.31,0.5,Calm,Calm,-,N/A,Fog,Fog,0,2013-01-24 14:53:00
9:09 AM,62.6,60.8,94,30.30,0.2,SW,3.5,-,N/A,Fog,Fog,230,2013-01-24 15:09:00
9:38 AM,62.6,60.8,94,30.30,0.5,SW,3.5,-,N/A,Fog,Fog,220,2013-01-24 15:38:00
9:53 AM,63.0,62.1,97,30.32,1.0,SSW,3.5,-,N/A,,Overcast,210,2013-01-24 15:53:00
10:21 AM,64.4,62.6,94,30.30,3.0,SW,8.1,-,N/A,,Overcast,220,2013-01-24 16:21:00
10:45 AM,66.2,64.4,94,30.29,9.0,South,8.1,-,N/A,,Mostly Cloudy,190,2013-01-24 16:45:00
10:53 AM,69.1,64.0,84,30.30,10.0,SSW,12.7,-,N/A,,Mostly Cloudy,210,2013-01-24 16:53:00
11:04 AM,69.8,64.4,83,30.28,10.0,SSW,15.0,-,N/A,,Mostly Cloudy,210,2013-01-24 17:04:00
11:21 AM,71.6,62.6,73,30.28,10.0,SW,15.0,23.0,N/A,,Scattered Clouds,220,2013-01-24 17:21:00
11:53 AM,73.0,62.1,68,30.28,10.0,WSW,13.8,-,N/A,,Scattered Clouds,240,2013-01-24 17:53:00
12:53 PM,75.9,60.1,58,30.24,10.0,SW,10.4,-,N/A,,Scattered Clouds,230,2013-01-24 18:53:00
1:53 PM,78.1,57.9,50,30.20,10.0,South,11.5,-,N/A,,Scattered Clouds,190,2013-01-24 19:53:00
2:53 PM,80.1,59.0,48,30.18,10.0,SSW,11.5,-,N/A,,Scattered Clouds,200,2013-01-24 20:53:00
3:53 PM,78.1,57.9,50,30.17,10.0,South,9.2,-,N/A,,Mostly Cloudy,190,2013-01-24 21:53:00
4:53 PM,75.0,61.0,62,30.17,10.0,South,10.4,23.0,N/A,,Scattered Clouds,170,2013-01-24 22:53:00
5:53 PM,71.1,60.1,68,30.19,10.0,South,12.7,-,N/A,,Scattered Clouds,170,2013-01-24 23:53:00
6:53 PM,68.0,61.0,78,30.20,10.0,South,8.1,-,N/A,,Partly Cloudy,180,2013-01-25 00:53:00
7:53 PM,66.0,61.0,84,30.21,10.0,South,9.2,-,N/A,,Partly Cloudy,180,2013-01-25 01:53:00
8:53 PM,64.0,61.0,90,30.20,10.0,South,6.9,-,N/A,,Partly Cloudy,170,2013-01-25 02:53:00
9:53 PM,63.0,61.0,93,30.19,10.0,South,6.9,-,N/A,,Partly Cloudy,180,2013-01-25 03:53:00
10:53 PM,63.0,60.1,90,30.20,10.0,South,5.8,-,N/A,,Partly Cloudy,180,2013-01-25 04:53:00
11:53 PM,62.1,60.1,93,30.19,10.0,South,6.9,-,N/A,,Clear,180,2013-01-25 05:53:00